[[{"header":{"parameterUnit":"m.s-1","parameterCategory":1,"la1":30.2991,"la2":30.254,"lo1":-89.0895,"lo2":-89.0444,"dy":0.0017,"dx":0.0017,"nx":28,"ny":28,"refTime":"2025-03-14T21:00:00:Z","depth":0,"parameterNumber":2,"parameterNumberName":"U-component_of_WINDS"},"data":[0,0,0,0,0,0,0,0,0,0,0,0,0,0,0,0,0,0,0,0,0,0,0,0,0,0,0,0,0,0,0,0,0,0,0,0,0,0,0,0,0,0,0,0,0,0,0,0,0,0,0,0,0,0,0,0,0,0,-4.0853,-4.0855,0,-4.0981,-4.0982,-4.0984,-4.1016,-4.1016,-4.1015,-4.1014,-4.1143,-4.1147,-4.1151,0,0,0,0,0,0,0,0,0,0,0,0,0,-4.0636,-4.064,-4.0853,-4.0855,-4.0856,-4.0981,-4.0983,-4.0984,-4.1016,-4.1015,-4.1014,-4.1014,-4.1142,-4.1147,-4.1152,0,0,0,0,0,0,0,0,0,0,0,0,0,-4.0744,-4.0641,-4.0853,-4.0887,-4.0892,-4.098,-4.0983,-4.0985,-4.1017,-4.1015,-4.1014,-4.1013,-4.114,-4.1146,-4.1153,-4.1215,0,0,-4.1172,-4.1174,0,0,0,0,0,0,0,0,-4.0738,-4.0752,-4.0881,-4.0885,-4.089,-4.0982,-4.0954,-4.1062,-4.1017,-4.0969,-4.1014,-4.1013,-4.109,-4.1101,-4.1127,-4.1221,-4.1227,-4.1172,-4.1176,-4.1179,-4.1181,0,0,0,0,0,0,0,-4.073,-4.0746,-4.0904,-4.0883,-4.0888,-4.0896,-4.091,-4.0974,-4.1035,-4.0973,-4.0976,-4.0991,-4.1093,-4.1121,-4.113,-4.1229,-4.1172,-4.1178,-4.1182,-4.1184,-4.1382,-4.1383,0,0,0,0,0,0,-4.0717,-4.074,-4.09,-4.0907,-4.0809,-4.0901,-4.0917,-4.0953,-4.1034,-4.1045,-4.0992,-4.0992,-4.1111,-4.1123,-4.1135,-4.1214,-4.1179,-4.1185,-4.1188,-4.1381,-4.1382,-4.1384,0,0,0,0,0,0,-4.0712,-4.0731,-4.0894,-4.0825,-4.0846,-4.0906,-4.0947,-4.0957,-4.0985,-4.1048,-4.1059,-4.1009,-4.111,-4.1126,-4.1196,-4.1219,-4.1187,-4.1193,-4.1379,-4.1381,-4.1383,-4.1372,0,0,0,0,0,0,-4.0706,-4.0729,-4.0753,-4.0825,-4.085,-4.0953,-4.0949,-4.096,-4.0996,-4.0997,-4.1068,-4.1078,-4.1111,-4.1186,-4.1202,-4.1227,-4.1198,-4.1377,-4.138,-4.1382,-4.1371,-4.1374,-4.1376,0,0,0,0,0,-4.0698,-4.0745,-4.0754,-4.0773,-4.0882,-4.0954,-4.0968,-4.1005,-4.0998,-4.1023,-4.1064,-4.1076,-4.1214,-4.1193,-4.1211,-4.1238,-4.1376,-4.1379,-4.1382,-4.1369,-4.1373,-4.1376,0,0,0,0,0,0,-4.0673,-4.0755,-4.0766,-4.0838,-4.0889,-4.0959,-4.0992,-4.1008,-4.1061,-4.106,-4.1103,-4.1119,-4.1185,-4.1219,-4.1194,-4.1304,-4.1295,-4.1302,-4.1279,-4.1283,-4.1286,-4.1275,-4.1203,0,0,0,0,0,-4.0676,-4.0729,-4.0797,-4.0853,-4.0878,-4.0931,-4.0964,-4.0988,-4.1042,-4.1064,-4.111,-4.1162,-4.1217,-4.1252,-4.1306,-4.1377,-4.1392,-4.1404,-4.1407,-4.1409,-4.1414,-4.1454,-4.146,-4.1395,-4.1395,-4.1395,0,0,-4.0683,-4.0734,-4.0764,-4.085,-4.0892,-4.0945,-4.0949,-4.1004,-4.1044,-4.1072,-4.114,-4.1176,-4.1237,-4.1307,-4.134,-4.1337,-4.1436,-4.1414,-4.1415,-4.1419,-4.1458,-4.1464,-4.147,-4.1397,-4.1397,-4.1396,0,0,-4.0721,-4.0765,-4.0817,-4.086,-4.0925,-4.0959,-4.0972,-4.1041,-4.1066,-4.1135,-4.1157,-4.1205,-4.13,-4.1342,-4.1376,-4.1433,-4.1446,-4.145,-4.1464,-4.1502,-4.1507,-4.1512,-4.1531,-4.1538,-4.1455,-4.1455,-4.1455,0,-4.0721,-4.0801,-4.0842,-4.0897,-4.0934,-4.0963,-4.1016,-4.1055,-4.1134,-4.1159,-4.1155,-4.1275,-4.1318,-4.1398,-4.1412,-4.1439,-4.1454,-4.1441,-4.1503,-4.1508,-4.1513,-4.1532,-4.154,-4.1455,-4.1455,-4.1455,-4.1455,0,-4.0797,-4.0853,-4.0888,-4.0964,-4.1005,-4.1058,-4.1107,-4.1144,-4.1165,-4.12,-4.1271,-4.1324,-4.1389,-4.1411,-4.1432,-4.1495,-4.1491,-4.1495,-4.1486,-4.1519,-4.1537,-4.1545,-4.1455,-4.1455,-4.1455,-4.1455,0,0,-4.0822,-4.0921,-4.0932,-4.0968,-4.1042,-4.1086,-4.1141,-4.1206,-4.1237,-4.1291,-4.1338,-4.1418,-4.1423,-4.1461,-4.1488,-4.1521,-4.1562,-4.1521,-4.1523,-4.1526,-4.1634,-4.163,-4.1638,-4.1573,-4.1574,-4.1576,-4.1629,0,-4.0869,-4.0968,-4.1007,-4.1088,-4.114,-4.117,-4.1218,-4.1269,-4.1304,-4.1353,-4.1392,-4.1448,-4.145,-4.1473,-4.1508,-4.155,-4.1584,-4.1547,-4.1616,-4.1618,-4.1598,-4.1647,-4.1643,-4.169,-4.1636,-4.1638,-4.1639,0,-4.0936,-4.0991,-4.1078,-4.1146,-4.117,-4.1212,-4.1275,-4.1323,-4.1381,-4.1404,-4.1448,-4.1473,-4.1532,-4.1522,-4.1604,-4.1577,-4.1608,-4.1633,-4.1636,-4.1642,-4.1629,-4.1654,-4.1706,-4.1713,-4.1651,-4.165,-4.1649,0,-4.0944,-4.104,-4.1104,-4.1134,-4.1216,-4.1245,-4.128,-4.1338,-4.1375,-4.143,-4.1455,-4.1516,-4.1549,-4.1597,-4.1637,-4.1626,-4.1715,-4.1708,-4.1736,-4.1735,-4.1751,-4.1749,-4.1808,-4.1774,-4.1774,-4.1774,-4.1774,0,-4.0991,-4.1042,-4.1109,-4.1148,-4.1207,-4.1251,-4.1308,-4.1346,-4.1397,-4.1444,-4.1474,-4.1518,-4.157,-4.162,-4.1653,-4.1715,-4.1731,-4.1751,-4.1758,-4.1747,-4.1744,-4.1767,-4.1764,-4.1776,-4.1775,-4.1775,-4.1775,0,-4.1009,-4.1055,-4.1127,-4.12,-4.1219,-4.1259,-4.1321,-4.136,-4.1398,-4.1457,-4.1474,-4.1532,-4.1593,-4.1639,-4.1718,-4.174,-4.1806,-4.1815,-4.1786,-4.179,-4.1814,-4.1811,-4.1888,-4.19,-4.1859,-4.1859,-4.1859,0,-4.1035,-4.1075,-4.1152,-4.1186,-4.1222,-4.1276,-4.1314,-4.136,-4.1399,-4.1469,-4.15,-4.1564,-4.1616,-4.1713,-4.1762,-4.1822,-4.1832,-4.1855,-4.1841,-4.1829,-4.1831,-4.1828,-4.1832,-4.1856,-4.1856,-4.1857,-4.1857,0,-4.1076,-4.1098,-4.1152,-4.1214,-4.1259,-4.1311,-4.1362,-4.1388,-4.1444,-4.1486,-4.1549,-4.159,-4.1671,-4.1733,-4.1799,-4.1836,-4.1856,-4.1861,-4.1871,-4.1859,-4.184,-4.1849,-4.179,-4.1859,-4.1858,-4.1858,-4.1858,-4.1858,-4.1099,-4.1136,-4.1196,-4.1256,-4.13,-4.1348,-4.1388,-4.1431,-4.1485,-4.1554,-4.1579,-4.1644,-4.1702,-4.1793,-4.1831,-4.1882,-4.1882,-4.1896,-4.1899,-4.1902,-4.19,-4.1833,-4.1895,-4.1895,-4.1895,-4.1895,-4.1895,0,-4.1141,-4.1181,-4.1236,-4.1308,-4.1354,-4.137,-4.1429,-4.1466,-4.1523,-4.1577,-4.1629,-4.1701,-4.1762,-4.1817,-4.1881,-4.1912,-4.1922,-4.1927,-4.1924,-4.1932,-4.1897,-4.1882,-4.1917,-4.1917,-4.1917,-4.1917,-4.1917,-4.1917,-4.1168,-4.1232,-4.1261,-4.1347,-4.1388,-4.1452,-4.1484,-4.1529,-4.1571,-4.1651,-4.1702,-4.1738,-4.1792,-4.186,-4.1917,-4.1932,-4.1953,-4.1955,-4.1972,-4.1937,-4.1934,-4.1932,-4.1918,-4.196,-4.196,-4.2003,-4.2003,-4.2003]},{"header":{"parameterUnit":"m.s-1","parameterCategory":1,"la1":30.2991,"la2":30.254,"lo1":-89.0895,"lo2":-89.0444,"dy":0.0017,"dx":0.0017,"nx":28,"ny":28,"refTime":"2025-03-14T21:00:00:Z","depth":0,"parameterNumber":3,"parameterNumberName":"V-component_of_WINDS"},"data":[0,0,0,0,0,0,0,0,0,0,0,0,0,0,0,0,0,0,0,0,0,0,0,0,0,0,0,0,0,0,0,0,0,0,0,0,0,0,0,0,0,0,0,0,0,0,0,0,0,0,0,0,0,0,0,0,0,0,6.448,6.4481,0,6.4629,6.4631,6.4633,6.4641,6.4639,6.4638,6.4636,6.4786,6.4792,6.4797,0,0,0,0,0,0,0,0,0,0,0,0,0,6.42,6.4205,6.448,6.4481,6.4483,6.4629,6.4631,6.4633,6.4641,6.4639,6.4637,6.4635,6.4784,6.4791,6.4798,0,0,0,0,0,0,0,0,0,0,0,0,0,6.4333,6.4207,6.4479,6.4505,6.4509,6.4629,6.4631,6.4634,6.4642,6.4639,6.4637,6.4634,6.4782,6.479,6.4798,6.4902,0,0,6.4824,6.4828,0,0,0,0,0,0,0,0,6.4325,6.4343,6.4499,6.4504,6.4508,6.4614,6.4588,6.4723,6.4642,6.4591,6.4636,6.4633,6.4731,6.4743,6.4777,6.4909,6.4915,6.4825,6.483,6.4834,6.4836,0,0,0,0,0,0,0,6.4316,6.4337,6.4539,6.4502,6.4507,6.4509,6.4525,6.4614,6.4673,6.4595,6.4596,6.4614,6.4733,6.4769,6.478,6.4917,6.4825,6.4832,6.4837,6.4841,6.5146,6.5149,0,0,0,0,0,0,6.4302,6.4329,6.4534,6.4543,6.4409,6.4516,6.4534,6.4582,6.4673,6.4684,6.4616,6.4614,6.4756,6.4771,6.4786,6.4916,6.4833,6.4841,6.4846,6.5143,6.5147,6.515,0,0,0,0,0,0,6.4296,6.432,6.4528,6.4437,6.4463,6.4524,6.4578,6.4587,6.4623,6.4688,6.4699,6.4642,6.4754,6.4774,6.4874,6.4921,6.4845,6.4853,6.514,6.5144,6.5149,6.5176,0,0,0,0,0,0,6.4288,6.4318,6.4358,6.4437,6.4468,6.4614,6.4581,6.4592,6.4638,6.4636,6.4716,6.4726,6.4754,6.4862,6.4883,6.4931,6.4859,6.5136,6.5142,6.5147,6.5171,6.518,6.5189,0,0,0,0,0,6.4278,6.4358,6.436,6.4385,6.4519,6.4617,6.4634,6.4665,6.4641,6.4683,6.4725,6.4724,6.4912,6.4872,6.4895,6.4948,6.5133,6.514,6.5147,6.5167,6.5179,6.5189,0,0,0,0,0,0,6.428,6.4368,6.4372,6.448,6.4541,6.4618,6.467,6.4676,6.4744,6.474,6.4775,6.4792,6.4893,6.493,6.4883,6.5055,6.502,6.5032,6.5027,6.5039,6.5048,6.5038,6.4866,0,0,0,0,0,6.4293,6.4366,6.4439,6.4527,6.4558,6.4609,6.4652,6.4672,6.4736,6.4761,6.4811,6.4873,6.4947,6.4994,6.5065,6.5176,6.5195,6.5223,6.5232,6.5239,6.525,6.5315,6.533,6.5173,6.5173,6.5173,0,0,6.4321,6.4378,6.4422,6.4529,6.4579,6.4654,6.4631,6.4709,6.4766,6.4773,6.4872,6.4911,6.4982,6.5089,6.5139,6.5123,6.5298,6.5248,6.5254,6.5261,6.5324,6.5339,6.5352,6.5178,6.5177,6.5176,0,0,6.4411,6.446,6.4541,6.4592,6.4669,6.4703,6.4722,6.48,6.4827,6.4927,6.4935,6.5002,6.5127,6.5179,6.5222,6.5335,6.5338,6.5357,6.5405,6.5468,6.5481,6.5492,6.5536,6.555,6.5367,6.5367,6.5367,0,6.4435,6.4549,6.4581,6.4663,6.4711,6.4723,6.4806,6.4853,6.4949,6.4982,6.4963,6.5124,6.5172,6.5294,6.5322,6.5355,6.538,6.5349,6.5476,6.5488,6.5499,6.5541,6.5557,6.5369,6.5369,6.5369,6.5368,0,6.4578,6.4657,6.4713,6.4808,6.4862,6.4943,6.4989,6.5039,6.5054,6.509,6.5194,6.5253,6.5339,6.5368,6.5382,6.5493,6.5482,6.5469,6.5436,6.5515,6.5556,6.5572,6.5372,6.5371,6.5371,6.537,0,0,6.4672,6.4786,6.4807,6.4852,6.4938,6.5,6.5083,6.5168,6.5213,6.5278,6.535,6.5457,6.5448,6.5497,6.5517,6.5572,6.5662,6.5553,6.5555,6.5574,6.5792,6.5803,6.5821,6.5664,6.5667,6.5669,6.5787,0,6.4774,6.4923,6.4956,6.5085,6.516,6.5174,6.5247,6.5308,6.5344,6.5414,6.5453,6.5531,6.551,6.554,6.5595,6.564,6.5707,6.5631,6.5733,6.5736,6.5717,6.5842,6.5853,6.5961,6.5803,6.5806,6.5808,0,6.4912,6.4985,6.5122,6.5203,6.5235,6.53,6.5383,6.5448,6.5519,6.5542,6.5598,6.5613,6.5701,6.5662,6.5785,6.5733,6.5777,6.5805,6.581,6.5823,6.5778,6.5861,6.5996,6.6014,6.5832,6.583,6.5828,0,6.4972,6.5103,6.5203,6.5241,6.5336,6.5382,6.5424,6.5492,6.5543,6.5615,6.5648,6.5728,6.5773,6.5835,6.5873,6.584,6.5994,6.5957,6.6017,6.6017,6.6051,6.6049,6.6198,6.6074,6.6073,6.6073,6.6073,0,6.5084,6.5168,6.5232,6.5294,6.539,6.5427,6.552,6.5562,6.5623,6.5694,6.5709,6.5775,6.5819,6.5891,6.592,6.602,6.6039,6.6061,6.6068,6.6062,6.6059,6.6092,6.6087,6.6077,6.6076,6.6076,6.6075,0,6.5167,6.5213,6.5324,6.5407,6.543,6.5497,6.5568,6.5629,6.5666,6.5756,6.5779,6.5838,6.5925,6.5968,6.6074,6.6094,6.6208,6.6208,6.6185,6.6188,6.6247,6.6243,6.6426,6.6453,6.6307,6.6308,6.631,0,6.5237,6.5303,6.5394,6.5444,6.5487,6.5566,6.5619,6.5658,6.5712,6.58,6.5851,6.5939,6.6012,6.6149,6.6202,6.6284,6.6289,6.6348,6.6301,6.6294,6.6294,6.6291,6.63,6.6356,6.6358,6.6359,6.636,0,6.5358,6.5378,6.5454,6.5539,6.5603,6.5671,6.5738,6.5777,6.5828,6.5888,6.5978,6.6035,6.6146,6.6234,6.6321,6.6364,6.6372,6.6374,6.6393,6.6388,6.6373,6.6386,6.6211,6.637,6.6369,6.6368,6.6368,6.6367,6.5439,6.55,6.5575,6.566,6.5715,6.5779,6.5842,6.5888,6.5964,6.606,6.6078,6.6174,6.6246,6.6364,6.641,6.6486,6.6474,6.65,6.6507,6.6514,6.6519,6.6359,6.6502,6.6502,6.6501,6.6501,6.6501,0,6.5563,6.5613,6.5691,6.5787,6.5854,6.5856,6.5932,6.5988,6.6073,6.614,6.6213,6.6318,6.6404,6.6464,6.6552,6.6602,6.6608,6.6624,6.6622,6.6632,6.6524,6.65,6.6618,6.6618,6.6618,6.6617,6.6617,6.6617,6.5636,6.5741,6.5771,6.5903,6.5952,6.6048,6.6092,6.6151,6.6205,6.6323,6.6395,6.6434,6.6499,6.6593,6.6672,6.6688,6.6721,6.6738,6.6754,6.6651,6.6639,6.6628,6.6606,6.6744,6.6744,6.6857,6.6858,6.6858]}]]